Weather in Chuchkovo

Russia / Vologda Oblast     59°35′53″N   41°14′27″E
temp.,
°C
wind,
m/s
gust,
m/s
humid.,
%
clouds,
%
prec.,
mm/h
press.,
hPa
HPBL,
m
27 october, wed
wed2700:00+2sw3995100 0.0 1011372
03:00+2sw3996100 0.0 1010341
06:00+1ssw3996100 0.0 1009363
09:00+2ssw3995100 0.0 1007438
12:00+3sw41091100 0.0 1005588
15:00+2sw41197100 0.6 1003758
18:00+3wsw41298100 0.6 1003871
21:00+5w51192100 0.8 1003926
28 october, thu
thu2800:00+5w41092100 0.4 1004834
03:00+5w41093100 0.4 1005727
06:00+4w3891100 0.2 1006466
09:00+4nw2593100 0.3 1008373
12:00+3nne3685100 0.1 1011608
15:00+1nne47795 0.1 1015702
18:00−3nne410815 0.0 1020557
21:00−4nne28835 0.0 1023416
29 october, fri
fri2900:00−4n13875 0.0 1026156
03:00−4ese118793 0.0 102834
06:00−3sse2484100 0.0 1028227
09:00−2s3974100 0.0 1028425
12:000s51361100 0.0 1025609
15:00−2s51695100 2.5 1022568
18:00+2sw51688100 2.4 1020823
21:00+5wsw51493100 2.4 1018621
30 october, sat
sat3000:00+5wsw51496100 0.0 1019526
03:00+6wsw51396100 0.0 1019603
06:00+6wsw4139680 0.0 1020506
09:00+5wsw41496100 0.0 1020443
12:00+8wsw51293100 0.0 1020567
15:00+8wsw51191100 0.0 1021680
18:00+8wsw41189100 0.0 1021449
21:00+5sw31192100 0.0 1022309
31 october, sun
sun3100:00+4sw3129247 0.0 1022311
03:00+4sw41293100 0.0 1021338
06:00+4sw413927 0.0 1020391
09:00+4sw41393100 0.0 1020472
12:00+7sw4128734 0.0 1019565
15:00+7sw5128893 0.0 1019581
18:00+5sw4129398 0.0 1019427
21:00+5sw41294100 0.0 1019405